Regional Weather Roundup
Issued by NWS Green Bay, WI

Home | Current Version | Previous Version | Graphics & Text | Print | Product List | Glossary Off
Versions: 1 2 3 4 5 6 7 8 9 10 11 12 13 14 15 16 17 18 19 20 21 22 23 24 25 26 27 28 29 30 31 32 33 34 35 36 37 38 39 40 41 42 43 44 45 46 47 48 49 50

000
ASUS43 KGRB 201559
RWRGRB

NORTH-CENTRAL AND NORTHEAST WISCONSIN REGIONAL WEATHER ROUNDUP
NATIONAL WEATHER SERVICE GREEN BAY WI
1000 AM CST THU NOV 20 2014

WIZ005-009-010>012-018-019-201700-
NORTH CENTRAL WISCONSIN

CITY           SKY/WX    TMP DP  RH WIND       PRES   REMARKS
IRONWOOD       CLOUDY     9   7  92 W13       29.85R VSB 1/2 WCI  -7
MANITOWISH WTR NOT AVBL
ARBOR VITAE    NOT AVBL
EAGLE RIVER    NOT AVBL
LAND O LAKES   NOT AVBL
RHINELANDER    MOSUNNY    8  -1  66 W16G22    29.87R WCI -10
PHILLIPS       NOT AVBL
ANTIGO         NOT AVBL
TOMAHAWK       NOT AVBL
MERRILL        NOT AVBL
$$

WIZ013-073-201700-
NORTHEAST WISCONSIN

CITY           SKY/WX    TMP DP  RH WIND       PRES   REMARKS
IRON MOUNTAIN  PTSUNNY   13   1  59 W14       29.83R WCI  -2
MARINETTE      SUNNY     16   3  57 NW13G20   29.89R WCI   2
$$

WIZ017-030-035>037-045-201700-
CENTRAL WISCONSIN

CITY           SKY/WX    TMP DP  RH WIND       PRES   REMARKS
MEDFORD        NOT AVBL
WAUSAU         MOSUNNY   10   1  67 W13       29.94R WCI  -5
MOSINEE        NOT AVBL
MARSHFIELD     SUNNY     11   1  64 NW17G23   29.97R WCI  -6
WISC RAPIDS    MOSUNNY   13   0  56 NW18G26   30.01R WCI  -4
STEVENS POINT  NOT AVBL
WAUPACA        NOT AVBL
SHAWANO        NOT AVBL
CLINTONVILLE   SUNNY     16   3  57 NW15G23   29.95R WCI   1
$$

WIZ038-039-048-051-201700-
FOX VALLEY

CITY           SKY/WX    TMP DP  RH WIND       PRES   REMARKS
NWS GREEN BAY  SUNNY     17   5  59 W17       29.95R WCI   1
APPLETON       MOSUNNY   16   1  53 NW20G28   29.95R WCI  -1
OSHKOSH        LGT SNOW  16   8  71 W13       29.97R WCI   2
FOND DU LAC    MOSUNNY   17   5  59 W21G28    29.98R WCI   0
$$

WIZ022-050-052-201700-
EAST CENTRAL WISCONSIN

CITY           SKY/WX    TMP DP  RH WIND       PRES   REMARKS
STURGEON BAY   PTSUNNY   18   3  53 W18G24    29.89R WCI   2
MANITOWOC      NOT AVBL
SHEBOYGAN      LGT SNOW  17  10  74 NW17G23   29.96R WCI   1
$$

LMZ563-521-522-541>543-201700-
LAKESHORE

STATION/POSITION TIME  TEMP    WIND        PRES    VSBY  WAVE
                       AIR SEA DIR/SP/G                  HT/PER
                 (UTC) (F)     (DEG/KT/KT) (MB)    (MI)  (FT/S)
SHEBOYGAN LKSHOR 1500   18 33  280/ 19/ 24 1015.1R
KEWAUNEE LKSHORE 1500   16     290/ 11/ 19 1012.1R
ALGOMA MARINA    1500          300/ 14/ 21   N/A
NORTHPORT PIER   1500   18     290/ 11/ 24 1011.2R
N MID LAKE BUOY  1500   21 42  300/ 21/ 29 1010.5R         5/ 6
SISTER BAY LKSHO 1500          310/ 25/ 29   N/A
CHAMBERS ISLAND  1500   19     290/  9/ 14 1011.9R
MENOMINEE LKSHOR 1500   16     270/ 13/ 18 1012.9R
$$


USA.gov is the U.S. government's official web portal to all federal, state and local government web resources and services.